AAL487 CYHZ-KBNA

Flight info

Callsign AAL487
Flight time 3h 46m
Altitude 36000
Route SENVI DCT VIGMA DCT ALLEX Q822 AJJAY DCT REVSS DCT JEFFF DCT BEETS DCT KEESH DCT HVQ DCT HUGEN DCT GROAT PASLY5
Aircraft A319/M-SDE3FGHIRWY/LB1

Departure

Time 2026-05-07 03:07
Airport Halifax / Stanfield International Airport (CYHZ)

Arrival

Time 2026-05-07 06:54
Airport Nashville International Airport (KBNA)
Time Latitude Longitude Altitude Speed Heading
2026-05-07 02:50 44.88508 -63.51350 452 ft 0 kts 260°
2026-05-07 02:59 44.88509 -63.51340 450 ft 2 kts 259°
2026-05-07 03:00 44.88512 -63.51318 450 ft 2 kts 259°
2026-05-07 03:00 44.88515 -63.51296 451 ft 2 kts 259°
2026-05-07 03:00 44.88518 -63.51274 451 ft 2 kts 259°
2026-05-07 03:00 44.88521 -63.51252 450 ft 2 kts 259°
2026-05-07 03:01 44.88524 -63.51230 451 ft 2 kts 294°
2026-05-07 03:01 44.88513 -63.51215 450 ft 2 kts 347°
2026-05-07 03:01 44.88506 -63.51213 451 ft 0 kts 347°
2026-05-07 03:03 44.88518 -63.51217 449 ft 5 kts 347°
2026-05-07 03:03 44.88557 -63.51228 451 ft 8 kts 349°
2026-05-07 03:04 44.88641 -63.51248 452 ft 13 kts 351°
2026-05-07 03:04 44.88694 -63.51171 451 ft 12 kts 75°
2026-05-07 03:04 44.88710 -63.51053 450 ft 13 kts 80°
2026-05-07 03:04 44.88732 -63.50934 451 ft 12 kts 64°
2026-05-07 03:05 44.88796 -63.50855 451 ft 13 kts 35°
2026-05-07 03:05 44.88875 -63.50775 450 ft 15 kts 36°
2026-05-07 03:05 44.88958 -63.50690 451 ft 14 kts 36°
2026-05-07 03:05 44.88999 -63.50584 451 ft 13 kts 107°
2026-05-07 03:06 44.88948 -63.50478 451 ft 13 kts 133°
2026-05-07 03:06 44.88864 -63.50457 450 ft 13 kts 202°
2026-05-07 03:06 44.88749 -63.50570 451 ft 39 kts 214°
2026-05-07 03:06 44.88335 -63.50979 450 ft 104 kts 215°
2026-05-07 03:07 44.87599 -63.51704 460 ft 151 kts 215°
2026-05-07 03:07 44.86733 -63.52587 941 ft 156 kts 215°
2026-05-07 03:07 44.85852 -63.53518 1551 ft 160 kts 213°
2026-05-07 03:07 44.84950 -63.54468 2077 ft 171 kts 213°
2026-05-07 03:08 44.84052 -63.55680 2590 ft 190 kts 234°
2026-05-07 03:08 44.83555 -63.57541 3046 ft 217 kts 248°
2026-05-07 03:08 44.83163 -63.59699 3624 ft 234 kts 251°
2026-05-07 03:08 44.82796 -63.61959 4449 ft 238 kts 251°
2026-05-07 03:09 44.82429 -63.64250 5326 ft 241 kts 252°
2026-05-07 03:09 44.82057 -63.66556 6276 ft 241 kts 251°
2026-05-07 03:09 44.81676 -63.68865 7117 ft 243 kts 250°
2026-05-07 03:09 44.81290 -63.71157 7937 ft 245 kts 250°
2026-05-07 03:10 44.80891 -63.73493 8770 ft 246 kts 250°
2026-05-07 03:10 44.80487 -63.75842 9595 ft 248 kts 250°
2026-05-07 03:10 44.80078 -63.78208 10337 ft 254 kts 249°
2026-05-07 03:10 44.79629 -63.80737 10557 ft 277 kts 249°
2026-05-07 03:11 44.79138 -63.83473 10720 ft 300 kts 249°
2026-05-07 03:11 44.78613 -63.86423 10939 ft 319 kts 250°
2026-05-07 03:11 44.78086 -63.89454 11477 ft 326 kts 250°
2026-05-07 03:11 44.77550 -63.92582 12098 ft 331 kts 250°
2026-05-07 03:12 44.77005 -63.95757 12714 ft 336 kts 249°
2026-05-07 03:12 44.76447 -63.98971 13353 ft 340 kts 249°
2026-05-07 03:12 44.75880 -64.02224 13952 ft 344 kts 249°
2026-05-07 03:12 44.75302 -64.05512 14530 ft 348 kts 249°
2026-05-07 03:13 44.74717 -64.08819 15139 ft 349 kts 250°
2026-05-07 03:13 44.74128 -64.12141 15749 ft 351 kts 250°
2026-05-07 03:13 44.73549 -64.15418 16349 ft 353 kts 251°
2026-05-07 03:13 44.72979 -64.18735 16919 ft 356 kts 254°
2026-05-07 03:14 44.72454 -64.22156 17458 ft 360 kts 255°
2026-05-07 03:14 44.71956 -64.25625 17972 ft 364 kts 256°
2026-05-07 03:14 44.70964 -64.32679 18934 ft 371 kts 256°
2026-05-07 03:15 44.70451 -64.36238 19385 ft 373 kts 256°
2026-05-07 03:15 44.69925 -64.39815 19862 ft 375 kts 255°
2026-05-07 03:15 44.69387 -64.43408 20329 ft 377 kts 255°
2026-05-07 03:15 44.68843 -64.47020 20776 ft 379 kts 255°
2026-05-07 03:16 44.68304 -64.50603 21207 ft 381 kts 255°
2026-05-07 03:16 44.67756 -64.54254 21637 ft 383 kts 255°
2026-05-07 03:16 44.67206 -64.57923 22059 ft 384 kts 255°
2026-05-07 03:16 44.66654 -64.61601 22507 ft 386 kts 255°
2026-05-07 03:17 44.66098 -64.65290 22946 ft 388 kts 255°
2026-05-07 03:17 44.65535 -64.69006 23333 ft 390 kts 255°
2026-05-07 03:17 44.64967 -64.72742 23688 ft 392 kts 254°
2026-05-07 03:17 44.64395 -64.76498 24015 ft 394 kts 254°
2026-05-07 03:18 44.63829 -64.80220 24330 ft 396 kts 254°
2026-05-07 03:18 44.63251 -64.84006 24668 ft 397 kts 254°
2026-05-07 03:18 44.62671 -64.87801 24984 ft 399 kts 254°
2026-05-07 03:18 44.62085 -64.91614 25296 ft 400 kts 254°
2026-05-07 03:19 44.61494 -64.95442 25601 ft 402 kts 254°
2026-05-07 03:19 44.60900 -64.99285 25908 ft 404 kts 254°
2026-05-07 03:19 44.60303 -65.03142 26206 ft 405 kts 254°
2026-05-07 03:19 44.59702 -65.07014 26497 ft 407 kts 253°
2026-05-07 03:20 44.59106 -65.10848 26785 ft 408 kts 254°
2026-05-07 03:20 44.58499 -65.14742 27093 ft 410 kts 253°
2026-05-07 03:20 44.57890 -65.18654 27379 ft 411 kts 253°
2026-05-07 03:20 44.57276 -65.22578 27655 ft 413 kts 253°
2026-05-07 03:21 44.56658 -65.26517 27925 ft 414 kts 253°
2026-05-07 03:21 44.56037 -65.30470 28207 ft 415 kts 253°
2026-05-07 03:21 44.55415 -65.34418 28586 ft 414 kts 253°
2026-05-07 03:21 44.54792 -65.38352 28981 ft 413 kts 253°
2026-05-07 03:22 44.54171 -65.42269 29370 ft 411 kts 253°
2026-05-07 03:22 44.53557 -65.46125 29766 ft 410 kts 253°
2026-05-07 03:22 44.52935 -65.50023 30143 ft 409 kts 253°
2026-05-07 03:22 44.52317 -65.53907 30478 ft 407 kts 253°
2026-05-07 03:23 44.51702 -65.57773 30849 ft 406 kts 253°
2026-05-07 03:23 44.51088 -65.61620 31254 ft 404 kts 253°
2026-05-07 03:23 44.50471 -65.65448 31611 ft 402 kts 254°
2026-05-07 03:23 44.49858 -65.69243 32036 ft 398 kts 254°
2026-05-07 03:24 44.49249 -65.73013 32421 ft 396 kts 254°
2026-05-07 03:24 44.48654 -65.76710 32807 ft 393 kts 254°
2026-05-07 03:24 44.48050 -65.80433 33184 ft 391 kts 254°
2026-05-07 03:24 44.47446 -65.84136 33557 ft 389 kts 254°
2026-05-07 03:25 44.46846 -65.87821 33929 ft 387 kts 254°
2026-05-07 03:25 44.46247 -65.91488 34213 ft 386 kts 254°
2026-05-07 03:25 44.45649 -65.95140 34506 ft 385 kts 254°
2026-05-07 03:25 44.45050 -65.98788 34768 ft 384 kts 254°
2026-05-07 03:26 44.44449 -66.02436 34882 ft 385 kts 254°
2026-05-07 03:26 44.43254 -66.09672 34943 ft 384 kts 254°
2026-05-07 03:27 44.42051 -66.16953 34892 ft 384 kts 255°
2026-05-07 03:27 44.40842 -66.24208 34894 ft 382 kts 255°
2026-05-07 03:28 44.39641 -66.31441 34876 ft 382 kts 255°
2026-05-07 03:28 44.38441 -66.38615 34880 ft 382 kts 255°
2026-05-07 03:29 44.37226 -66.45836 34880 ft 382 kts 255°
2026-05-07 03:29 44.36005 -66.53051 34861 ft 381 kts 254°
2026-05-07 03:30 44.34822 -66.60277 34854 ft 383 kts 259°
2026-05-07 03:30 44.34891 -66.67699 34838 ft 392 kts 275°
2026-05-07 03:31 44.36394 -66.75095 34837 ft 397 kts 280°
2026-05-07 03:31 44.37974 -66.82484 34836 ft 397 kts 280°
2026-05-07 03:32 44.39529 -66.89882 34840 ft 396 kts 280°
2026-05-07 03:32 44.40882 -66.97311 34819 ft 390 kts 271°
2026-05-07 03:33 44.40467 -67.04669 34820 ft 381 kts 252°
2026-05-07 03:33 44.38742 -67.11666 34807 ft 381 kts 249°
2026-05-07 03:34 44.36979 -67.18641 34811 ft 381 kts 249°
2026-05-07 03:34 44.35212 -67.25621 34807 ft 381 kts 249°
2026-05-07 03:35 44.33452 -67.32548 34805 ft 381 kts 249°
2026-05-07 03:35 44.31681 -67.39515 34802 ft 381 kts 249°
2026-05-07 03:36 44.29908 -67.46481 34805 ft 381 kts 250°
2026-05-07 03:36 44.28138 -67.53423 34799 ft 379 kts 250°
2026-05-07 03:37 44.26378 -67.60290 34796 ft 378 kts 250°
2026-05-07 03:37 44.24602 -67.67193 34797 ft 378 kts 250°
2026-05-07 03:38 44.22817 -67.74092 34793 ft 378 kts 250°
2026-05-07 03:38 44.21029 -67.80985 34791 ft 378 kts 250°
2026-05-07 03:39 44.19239 -67.87873 34791 ft 378 kts 250°
2026-05-07 03:39 44.17461 -67.94704 34816 ft 377 kts 250°
2026-05-07 03:40 44.15677 -68.01557 34791 ft 376 kts 250°
2026-05-07 03:40 44.13890 -68.08398 34791 ft 376 kts 250°
2026-05-07 03:41 44.12093 -68.15226 34785 ft 376 kts 250°
2026-05-07 03:41 44.10301 -68.22004 34786 ft 376 kts 250°
2026-05-07 03:42 44.08500 -68.28830 34788 ft 376 kts 250°
2026-05-07 03:42 44.06698 -68.35644 34766 ft 374 kts 251°
2026-05-07 03:43 44.04906 -68.42402 34783 ft 372 kts 251°
2026-05-07 03:43 44.03130 -68.49090 34789 ft 371 kts 251°
2026-05-07 03:44 44.01333 -68.55806 34783 ft 371 kts 251°
2026-05-07 03:44 43.99530 -68.62518 34784 ft 371 kts 250°
2026-05-07 03:45 43.97724 -68.69226 34779 ft 371 kts 251°
2026-05-07 03:45 43.95935 -68.75888 34776 ft 371 kts 251°
2026-05-07 03:46 43.94133 -68.82561 34774 ft 368 kts 251°
2026-05-07 03:46 43.92337 -68.89208 34774 ft 368 kts 251°
2026-05-07 03:47 43.90539 -68.95846 34787 ft 367 kts 251°
2026-05-07 03:47 43.88737 -69.02464 34775 ft 367 kts 251°
2026-05-07 03:48 43.86943 -69.09026 34782 ft 367 kts 251°
2026-05-07 03:48 43.85130 -69.15630 34775 ft 367 kts 251°
2026-05-07 03:49 43.83319 -69.22219 34775 ft 364 kts 251°
2026-05-07 03:49 43.81521 -69.28753 34780 ft 363 kts 251°
2026-05-07 03:50 43.79731 -69.35229 34780 ft 362 kts 251°
2026-05-07 03:50 43.77929 -69.41741 34776 ft 362 kts 251°
2026-05-07 03:51 43.76124 -69.48240 34773 ft 361 kts 251°
2026-05-07 03:51 43.74314 -69.54725 34776 ft 361 kts 251°
2026-05-07 03:52 43.72230 -69.61001 34767 ft 366 kts 241°
2026-05-07 03:52 43.69005 -69.66481 34779 ft 368 kts 236°
2026-05-07 03:53 43.65724 -69.71898 34782 ft 367 kts 236°
2026-05-07 03:53 43.62455 -69.77312 34784 ft 367 kts 236°
2026-05-07 03:54 43.59179 -69.82719 34781 ft 367 kts 236°
2026-05-07 03:54 43.55922 -69.88068 34776 ft 365 kts 237°
2026-05-07 03:55 43.52668 -69.93420 34781 ft 364 kts 237°
2026-05-07 03:55 43.49415 -69.98761 34780 ft 364 kts 237°
2026-05-07 03:56 43.46151 -70.04087 34784 ft 364 kts 237°
2026-05-07 03:56 43.42910 -70.09362 34775 ft 363 kts 237°
2026-05-07 03:57 43.39670 -70.14647 34776 ft 361 kts 237°
2026-05-07 03:57 43.36438 -70.19913 34777 ft 360 kts 237°
2026-05-07 03:58 43.33203 -70.25165 34783 ft 360 kts 237°
2026-05-07 03:58 43.29986 -70.30379 34784 ft 360 kts 237°
2026-05-07 03:59 43.26749 -70.35623 34766 ft 360 kts 237°
2026-05-07 03:59 43.23515 -70.40850 34786 ft 359 kts 237°
2026-05-07 04:00 43.20269 -70.46090 34787 ft 365 kts 237°
2026-05-07 04:00 43.16956 -70.51445 34783 ft 377 kts 237°
2026-05-07 04:01 43.13505 -70.56995 34784 ft 389 kts 237°
2026-05-07 04:01 43.11748 -70.59818 35041 ft 387 kts 237°
2026-05-07 04:01 43.10011 -70.62596 35534 ft 381 kts 237°
2026-05-07 04:01 43.08302 -70.65317 36010 ft 372 kts 237°
2026-05-07 04:02 43.06625 -70.67970 36485 ft 365 kts 237°
2026-05-07 04:02 43.04973 -70.70569 36962 ft 359 kts 236°
2026-05-07 04:02 43.03349 -70.73111 37452 ft 351 kts 236°
2026-05-07 04:02 43.01776 -70.75558 37943 ft 344 kts 236°
2026-05-07 04:03 43.00211 -70.77978 38442 ft 336 kts 236°
2026-05-07 04:03 42.98678 -70.80331 38839 ft 327 kts 236°
2026-05-07 04:03 42.97180 -70.82612 39191 ft 318 kts 236°
2026-05-07 04:03 42.95720 -70.84817 39589 ft 308 kts 236°
2026-05-07 04:04 42.94300 -70.86938 39942 ft 297 kts 236°
2026-05-07 04:04 42.92921 -70.88976 40271 ft 288 kts 236°
2026-05-07 04:04 42.91560 -70.90980 40229 ft 290 kts 236°
2026-05-07 04:04 42.90174 -70.93032 39920 ft 299 kts 236°
2026-05-07 04:05 42.88776 -70.95117 39801 ft 302 kts 236°
2026-05-07 04:05 42.87368 -70.97210 40001 ft 295 kts 236°
2026-05-07 04:05 42.85992 -70.99239 40221 ft 289 kts 236°
2026-05-07 04:05 42.84625 -71.01252 40147 ft 292 kts 236°
2026-05-07 04:06 42.83233 -71.03311 39903 ft 299 kts 236°
2026-05-07 04:06 42.81825 -71.05405 39808 ft 299 kts 236°
2026-05-07 04:06 42.80434 -71.07458 40084 ft 290 kts 236°
2026-05-07 04:06 42.79075 -71.09447 40292 ft 285 kts 236°
2026-05-07 04:07 42.77736 -71.11407 40143 ft 290 kts 236°
2026-05-07 04:07 42.76348 -71.13452 39888 ft 297 kts 236°
2026-05-07 04:07 42.74946 -71.15527 39884 ft 297 kts 236°
2026-05-07 04:07 42.73565 -71.17558 40106 ft 289 kts 236°
2026-05-07 04:08 42.72205 -71.19546 40214 ft 286 kts 236°
2026-05-07 04:08 42.70841 -71.21542 40058 ft 291 kts 236°
2026-05-07 04:08 42.69452 -71.23585 39873 ft 296 kts 236°
2026-05-07 04:08 42.68057 -71.25641 39897 ft 294 kts 236°
2026-05-07 04:09 42.66681 -71.27659 40044 ft 288 kts 236°
2026-05-07 04:09 42.65323 -71.29637 40142 ft 285 kts 236°
2026-05-07 04:09 42.63981 -71.31591 40055 ft 288 kts 236°
2026-05-07 04:09 42.62608 -71.33600 39922 ft 292 kts 236°
2026-05-07 04:10 42.61225 -71.35626 39931 ft 292 kts 236°
2026-05-07 04:10 42.59854 -71.37628 40050 ft 287 kts 236°
2026-05-07 04:10 42.58495 -71.39603 40098 ft 286 kts 236°
2026-05-07 04:10 42.57132 -71.41588 40005 ft 289 kts 236°
2026-05-07 04:11 42.55756 -71.43597 39913 ft 292 kts 236°
2026-05-07 04:11 42.54398 -71.45580 39950 ft 290 kts 236°
2026-05-07 04:11 42.53031 -71.47571 40044 ft 287 kts 236°
2026-05-07 04:11 42.51671 -71.49544 40057 ft 287 kts 236°
2026-05-07 04:12 42.50306 -71.51528 39950 ft 289 kts 237°
2026-05-07 04:12 42.48937 -71.53518 39979 ft 288 kts 237°
2026-05-07 04:12 42.47575 -71.55496 40067 ft 286 kts 237°
2026-05-07 04:12 42.46218 -71.57459 40105 ft 285 kts 236°
2026-05-07 04:13 42.44859 -71.59427 40034 ft 287 kts 237°
2026-05-07 04:13 42.43511 -71.61383 39974 ft 289 kts 237°
2026-05-07 04:13 42.42145 -71.63366 40008 ft 287 kts 237°
2026-05-07 04:13 42.40785 -71.65332 40078 ft 285 kts 237°
2026-05-07 04:14 42.39429 -71.67290 40082 ft 285 kts 237°
2026-05-07 04:14 42.38069 -71.69255 40009 ft 287 kts 237°
2026-05-07 04:14 42.36702 -71.71234 39976 ft 288 kts 237°
2026-05-07 04:14 42.35338 -71.73206 40023 ft 287 kts 237°
2026-05-07 04:15 42.33981 -71.75162 40066 ft 284 kts 237°
2026-05-07 04:15 42.32652 -71.77068 40123 ft 282 kts 237°
2026-05-07 04:15 42.31304 -71.79003 40056 ft 284 kts 237°
2026-05-07 04:15 42.29944 -71.80961 39972 ft 287 kts 237°
2026-05-07 04:16 42.28582 -71.82922 40007 ft 285 kts 237°
2026-05-07 04:16 42.27230 -71.84863 40086 ft 282 kts 237°
2026-05-07 04:16 42.25886 -71.86787 40091 ft 282 kts 237°
2026-05-07 04:16 42.24533 -71.88728 39999 ft 285 kts 237°
2026-05-07 04:17 42.23171 -71.90686 39970 ft 286 kts 237°
2026-05-07 04:17 42.21813 -71.92634 40085 ft 283 kts 237°
2026-05-07 04:17 42.20485 -71.94533 40163 ft 281 kts 237°
2026-05-07 04:17 42.19140 -71.96451 40089 ft 282 kts 237°
2026-05-07 04:18 42.17788 -71.98384 40021 ft 284 kts 237°
2026-05-07 04:18 42.16438 -72.00312 40070 ft 282 kts 237°
2026-05-07 04:18 42.15095 -72.02224 40147 ft 280 kts 237°
2026-05-07 04:18 42.13754 -72.04128 40137 ft 280 kts 237°
2026-05-07 04:19 42.12408 -72.06044 40071 ft 283 kts 237°
2026-05-07 04:19 42.11054 -72.07973 40053 ft 283 kts 237°
2026-05-07 04:19 42.09723 -72.09868 40105 ft 281 kts 237°
2026-05-07 04:19 42.08384 -72.11771 40135 ft 280 kts 237°
2026-05-07 04:20 42.07042 -72.13681 40067 ft 282 kts 237°
2026-05-07 04:20 42.05694 -72.15609 40028 ft 283 kts 237°
2026-05-07 04:20 42.04347 -72.17532 40089 ft 281 kts 237°
2026-05-07 04:21 42.01671 -72.21332 40099 ft 279 kts 238°
2026-05-07 04:21 42.00331 -72.23232 40071 ft 280 kts 238°
2026-05-07 04:21 41.99008 -72.25109 40083 ft 281 kts 238°
2026-05-07 04:21 41.97667 -72.27007 40160 ft 279 kts 238°
2026-05-07 04:22 41.96331 -72.28895 40197 ft 278 kts 237°
2026-05-07 04:22 41.94994 -72.30781 40184 ft 279 kts 237°
2026-05-07 04:22 41.93653 -72.32675 40147 ft 280 kts 238°
2026-05-07 04:22 41.92310 -72.34572 40147 ft 280 kts 237°
2026-05-07 04:23 41.90969 -72.36464 40178 ft 279 kts 237°
2026-05-07 04:23 41.89633 -72.38347 40195 ft 279 kts 237°
2026-05-07 04:23 41.88294 -72.40234 40184 ft 280 kts 237°
2026-05-07 04:23 41.86970 -72.42101 40183 ft 280 kts 237°
2026-05-07 04:24 41.85628 -72.43989 40164 ft 279 kts 238°
2026-05-07 04:24 41.84292 -72.45865 40206 ft 278 kts 238°
2026-05-07 04:24 41.82956 -72.47738 40203 ft 278 kts 238°
2026-05-07 04:24 41.81599 -72.49646 39719 ft 294 kts 238°
2026-05-07 04:25 41.80119 -72.51777 38467 ft 328 kts 239°
2026-05-07 04:25 41.78821 -72.54254 37450 ft 320 kts 254°
2026-05-07 04:25 41.78072 -72.57060 36588 ft 322 kts 255°
2026-05-07 04:25 41.77296 -72.59902 35786 ft 327 kts 255°
2026-05-07 04:26 41.76508 -72.62721 35167 ft 328 kts 255°
2026-05-07 04:26 41.75708 -72.65567 34935 ft 326 kts 254°
2026-05-07 04:26 41.74119 -72.71275 34880 ft 328 kts 255°
2026-05-07 04:27 41.72543 -72.77009 34882 ft 328 kts 255°
2026-05-07 04:27 41.70971 -72.82747 34868 ft 329 kts 255°
2026-05-07 04:28 41.69402 -72.88457 34876 ft 329 kts 255°
2026-05-07 04:28 41.67825 -72.94206 34871 ft 329 kts 255°
2026-05-07 04:29 41.66245 -72.99927 34876 ft 326 kts 255°
2026-05-07 04:29 41.64668 -73.05607 34879 ft 326 kts 255°
2026-05-07 04:30 41.63104 -73.11245 34885 ft 326 kts 255°
2026-05-07 04:30 41.61526 -73.16921 34896 ft 326 kts 255°
2026-05-07 04:31 41.59946 -73.22595 34891 ft 326 kts 254°
2026-05-07 04:31 41.58362 -73.28264 34895 ft 326 kts 254°
2026-05-07 04:32 41.56788 -73.33887 34887 ft 324 kts 255°
2026-05-07 04:32 41.55208 -73.39514 34893 ft 324 kts 254°
2026-05-07 04:33 41.53627 -73.45139 34889 ft 323 kts 253°
2026-05-07 04:33 41.52052 -73.50753 34887 ft 323 kts 254°
2026-05-07 04:34 41.50467 -73.56368 34890 ft 324 kts 254°
2026-05-07 04:34 41.48883 -73.61947 34888 ft 324 kts 254°
2026-05-07 04:35 41.47293 -73.67550 34902 ft 322 kts 254°
2026-05-07 04:35 41.45704 -73.73133 34892 ft 322 kts 254°
2026-05-07 04:36 41.44111 -73.78709 34888 ft 322 kts 254°
2026-05-07 04:36 41.42520 -73.84297 34881 ft 323 kts 254°
2026-05-07 04:37 41.40935 -73.89846 34886 ft 323 kts 254°
2026-05-07 04:37 41.39332 -73.95433 34888 ft 323 kts 254°
2026-05-07 04:38 41.37730 -74.01003 34908 ft 322 kts 254°
2026-05-07 04:38 41.36129 -74.06559 34887 ft 321 kts 254°
2026-05-07 04:39 41.34538 -74.12076 34899 ft 321 kts 254°
2026-05-07 04:39 41.32931 -74.17631 34893 ft 322 kts 253°
2026-05-07 04:40 41.31324 -74.23183 34847 ft 322 kts 254°
2026-05-07 04:40 41.29708 -74.28757 34911 ft 324 kts 253°
2026-05-07 04:41 41.28095 -74.34307 34915 ft 324 kts 253°
2026-05-07 04:41 41.26467 -74.39884 34920 ft 323 kts 253°
2026-05-07 04:42 41.24830 -74.45435 34916 ft 323 kts 252°
2026-05-07 04:42 41.22729 -74.50774 34924 ft 327 kts 248°
2026-05-07 04:43 41.20561 -74.56036 34929 ft 327 kts 248°
2026-05-07 04:43 41.18381 -74.61328 34926 ft 327 kts 248°
2026-05-07 04:44 41.16198 -74.66621 34873 ft 327 kts 248°
2026-05-07 04:44 41.14003 -74.71922 34923 ft 328 kts 248°
2026-05-07 04:45 41.11800 -74.77228 34922 ft 328 kts 248°
2026-05-07 04:45 41.09612 -74.82494 34921 ft 328 kts 248°
2026-05-07 04:46 41.07409 -74.87797 34919 ft 329 kts 248°
2026-05-07 04:46 41.05198 -74.93095 34918 ft 328 kts 248°
2026-05-07 04:47 41.02985 -74.98387 34913 ft 329 kts 248°
2026-05-07 04:47 41.00787 -75.03649 34911 ft 329 kts 248°
2026-05-07 04:48 40.98571 -75.08936 34920 ft 326 kts 247°
2026-05-07 04:48 40.96372 -75.14157 34915 ft 324 kts 248°
2026-05-07 04:49 40.94179 -75.19366 34917 ft 324 kts 248°
2026-05-07 04:49 40.92004 -75.24534 34918 ft 324 kts 248°
2026-05-07 04:50 40.89807 -75.29730 34918 ft 324 kts 247°
2026-05-07 04:50 40.87609 -75.34925 34920 ft 324 kts 247°
2026-05-07 04:51 40.85408 -75.40118 34923 ft 324 kts 247°
2026-05-07 04:51 40.83221 -75.45274 34919 ft 324 kts 247°
2026-05-07 04:52 40.81021 -75.50452 34926 ft 323 kts 247°
2026-05-07 04:52 40.78819 -75.55624 34927 ft 323 kts 247°
2026-05-07 04:53 40.76616 -75.60797 34930 ft 323 kts 247°
2026-05-07 04:53 40.74421 -75.65931 34936 ft 324 kts 247°
2026-05-07 04:54 40.72205 -75.71096 34930 ft 323 kts 247°
2026-05-07 04:54 40.69992 -75.76258 34928 ft 323 kts 247°
2026-05-07 04:55 40.67783 -75.81411 34897 ft 322 kts 247°
2026-05-07 04:55 40.65575 -75.86555 34928 ft 323 kts 247°
2026-05-07 04:56 40.63374 -75.91666 34924 ft 323 kts 247°
2026-05-07 04:56 40.61154 -75.96810 34923 ft 324 kts 247°
2026-05-07 04:57 40.58926 -76.01957 34922 ft 323 kts 247°
2026-05-07 04:57 40.56717 -76.07059 34923 ft 323 kts 247°
2026-05-07 04:58 40.54488 -76.12191 34925 ft 323 kts 247°
2026-05-07 04:58 40.52260 -76.17307 34931 ft 321 kts 247°
2026-05-07 04:59 40.50040 -76.22408 34921 ft 323 kts 247°
2026-05-07 04:59 40.47824 -76.27495 34926 ft 323 kts 247°
2026-05-07 05:00 40.45592 -76.32612 34928 ft 323 kts 247°
2026-05-07 05:00 40.43358 -76.37722 34936 ft 323 kts 247°
2026-05-07 05:01 40.41115 -76.42831 34936 ft 323 kts 247°
2026-05-07 05:01 40.38885 -76.47904 34927 ft 323 kts 247°
2026-05-07 05:02 40.36645 -76.53001 34927 ft 321 kts 247°
2026-05-07 05:02 40.34414 -76.58066 34876 ft 321 kts 247°
2026-05-07 05:03 40.32176 -76.63140 34922 ft 322 kts 247°
2026-05-07 05:03 40.29951 -76.68183 34939 ft 322 kts 247°
2026-05-07 05:04 40.27707 -76.73259 34941 ft 322 kts 247°
2026-05-07 05:04 40.25459 -76.78332 34941 ft 322 kts 247°
2026-05-07 05:05 40.23206 -76.83397 34944 ft 322 kts 247°
2026-05-07 05:05 40.20973 -76.88417 34957 ft 320 kts 247°
2026-05-07 05:06 40.18738 -76.93429 34945 ft 318 kts 247°
2026-05-07 05:06 40.16512 -76.98432 34911 ft 319 kts 247°
2026-05-07 05:07 40.14266 -77.03463 34946 ft 321 kts 247°
2026-05-07 05:07 40.12027 -77.08460 34953 ft 321 kts 247°
2026-05-07 05:08 40.09768 -77.13487 34952 ft 321 kts 247°
2026-05-07 05:08 40.07512 -77.18511 34951 ft 320 kts 247°
2026-05-07 05:09 40.05262 -77.23526 34977 ft 320 kts 247°
2026-05-07 05:09 40.03013 -77.28519 34953 ft 319 kts 247°
2026-05-07 05:10 40.00779 -77.33465 34951 ft 318 kts 247°
2026-05-07 05:10 39.98529 -77.38433 34962 ft 318 kts 247°
2026-05-07 05:11 39.96279 -77.43393 34954 ft 318 kts 246°
2026-05-07 05:11 39.94021 -77.48340 34958 ft 318 kts 246°
2026-05-07 05:12 39.91761 -77.53246 34961 ft 318 kts 246°
2026-05-07 05:12 39.89482 -77.58186 34960 ft 318 kts 246°
2026-05-07 05:13 39.87201 -77.63110 34959 ft 316 kts 246°
2026-05-07 05:13 39.84933 -77.68010 34961 ft 316 kts 246°
2026-05-07 05:14 39.82667 -77.72901 34961 ft 316 kts 246°
2026-05-07 05:14 39.80407 -77.77762 34958 ft 317 kts 246°
2026-05-07 05:15 39.78123 -77.82662 34969 ft 317 kts 246°
2026-05-07 05:15 39.75834 -77.87558 34970 ft 317 kts 246°
2026-05-07 05:16 39.73547 -77.92453 34968 ft 317 kts 246°
2026-05-07 05:16 39.71276 -77.97312 34981 ft 316 kts 246°
2026-05-07 05:17 39.68997 -78.02181 34965 ft 315 kts 246°
2026-05-07 05:17 39.66720 -78.07033 34958 ft 315 kts 246°
2026-05-07 05:18 39.64438 -78.11886 34967 ft 315 kts 246°
2026-05-07 05:18 39.62160 -78.16730 34955 ft 318 kts 246°
2026-05-07 05:19 39.59858 -78.21628 34959 ft 318 kts 246°
2026-05-07 05:19 39.57541 -78.26523 34958 ft 319 kts 245°
2026-05-07 05:20 39.55220 -78.31417 34958 ft 319 kts 245°
2026-05-07 05:20 39.52926 -78.36269 34965 ft 318 kts 245°
2026-05-07 05:21 39.49899 -78.43818 34967 ft 313 kts 252°
2026-05-07 05:22 39.48208 -78.49009 34962 ft 313 kts 251°
2026-05-07 05:22 39.46510 -78.54203 34959 ft 313 kts 251°
2026-05-07 05:23 39.44814 -78.59390 34958 ft 317 kts 251°
2026-05-07 05:23 39.43094 -78.64644 34963 ft 317 kts 251°
2026-05-07 05:24 39.41368 -78.69901 34978 ft 316 kts 251°
2026-05-07 05:24 39.39660 -78.75100 34994 ft 313 kts 251°
2026-05-07 05:25 39.37968 -78.80249 34988 ft 313 kts 251°
2026-05-07 05:25 39.36259 -78.85427 34954 ft 313 kts 251°
2026-05-07 05:26 39.34546 -78.90596 34957 ft 313 kts 251°
2026-05-07 05:26 39.32832 -78.95763 34956 ft 313 kts 251°
2026-05-07 05:27 39.31133 -79.00902 34950 ft 313 kts 251°
2026-05-07 05:27 39.29412 -79.06071 34975 ft 313 kts 251°
2026-05-07 05:28 39.27691 -79.11258 34948 ft 317 kts 250°
2026-05-07 05:28 39.25946 -79.16500 34961 ft 318 kts 250°
2026-05-07 05:29 39.24205 -79.21713 34954 ft 319 kts 250°
2026-05-07 05:29 39.22445 -79.26959 34957 ft 319 kts 250°
2026-05-07 05:30 39.20687 -79.32206 34964 ft 319 kts 250°
2026-05-07 05:30 39.18928 -79.37449 34961 ft 319 kts 250°
2026-05-07 05:31 39.17172 -79.42648 34969 ft 319 kts 250°
2026-05-07 05:31 39.15412 -79.47858 34964 ft 316 kts 250°
2026-05-07 05:32 39.13662 -79.53049 34967 ft 315 kts 250°
2026-05-07 05:32 39.12204 -79.57352 34966 ft 315 kts 250°
2026-05-07 05:33 39.10156 -79.63392 34963 ft 319 kts 250°
2026-05-07 05:33 39.08370 -79.68650 34967 ft 321 kts 250°
2026-05-07 05:34 39.06582 -79.73911 34998 ft 321 kts 250°
2026-05-07 05:34 39.05093 -79.78278 35003 ft 321 kts 250°
2026-05-07 05:35 39.03020 -79.84353 35009 ft 317 kts 250°
2026-05-07 05:35 39.01536 -79.88695 35012 ft 316 kts 250°
2026-05-07 05:36 38.99773 -79.93846 35012 ft 317 kts 250°
2026-05-07 05:36 38.97992 -79.99029 35009 ft 317 kts 250°
2026-05-07 05:37 38.95920 -80.05053 35006 ft 317 kts 250°
2026-05-07 05:37 38.94425 -80.09394 35005 ft 317 kts 250°
2026-05-07 05:38 38.92649 -80.14544 34976 ft 320 kts 250°
2026-05-07 05:38 38.90838 -80.19789 34993 ft 320 kts 250°
2026-05-07 05:39 38.88732 -80.25855 34987 ft 320 kts 249°
2026-05-07 05:39 38.87215 -80.30225 34985 ft 320 kts 250°
2026-05-07 05:40 38.85420 -80.35404 34987 ft 320 kts 249°
2026-05-07 05:40 38.83607 -80.40615 34984 ft 320 kts 249°
2026-05-07 05:41 38.81792 -80.45824 34983 ft 320 kts 249°
2026-05-07 05:41 38.79970 -80.51027 34984 ft 320 kts 249°
2026-05-07 05:42 38.78161 -80.56188 34991 ft 318 kts 249°
2026-05-07 05:42 38.76352 -80.61340 34988 ft 316 kts 249°
2026-05-07 05:43 38.74543 -80.66485 34934 ft 317 kts 250°
2026-05-07 05:43 38.72717 -80.71683 34989 ft 321 kts 250°
2026-05-07 05:44 38.70889 -80.76869 34991 ft 322 kts 250°
2026-05-07 05:44 38.69048 -80.82097 34992 ft 322 kts 250°
2026-05-07 05:45 38.67194 -80.87332 34991 ft 322 kts 249°
2026-05-07 05:45 38.65344 -80.92542 35017 ft 321 kts 249°
2026-05-07 05:46 38.63508 -80.97727 34991 ft 320 kts 249°
2026-05-07 05:46 38.61677 -81.02864 34998 ft 319 kts 249°
2026-05-07 05:47 38.59830 -81.08030 35002 ft 320 kts 249°
2026-05-07 05:47 38.57976 -81.13211 34995 ft 321 kts 249°
2026-05-07 05:48 38.56126 -81.18397 34990 ft 320 kts 249°
2026-05-07 05:48 38.54282 -81.23556 35000 ft 323 kts 249°
2026-05-07 05:49 38.52419 -81.28758 35021 ft 322 kts 249°
2026-05-07 05:49 38.50559 -81.33944 35002 ft 321 kts 249°
2026-05-07 05:50 38.48692 -81.39126 35000 ft 321 kts 249°
2026-05-07 05:50 38.46834 -81.44270 35003 ft 322 kts 249°
2026-05-07 05:51 38.44960 -81.49450 35001 ft 322 kts 249°
2026-05-07 05:51 38.43090 -81.54629 35008 ft 321 kts 249°
2026-05-07 05:52 38.41221 -81.59802 35037 ft 321 kts 249°
2026-05-07 05:52 38.39352 -81.64932 35035 ft 321 kts 249°
2026-05-07 05:53 38.37471 -81.70083 35037 ft 320 kts 248°
2026-05-07 05:53 38.35599 -81.75229 35004 ft 321 kts 249°
2026-05-07 05:54 38.33571 -81.80335 35030 ft 325 kts 246°
2026-05-07 05:54 38.31301 -81.85316 35021 ft 326 kts 245°
2026-05-07 05:55 38.29021 -81.90257 35017 ft 325 kts 245°
2026-05-07 05:55 38.26758 -81.95228 35015 ft 324 kts 245°
2026-05-07 05:56 38.24508 -82.00203 35019 ft 324 kts 245°
2026-05-07 05:56 38.22262 -82.05176 35015 ft 324 kts 245°
2026-05-07 05:57 38.20030 -82.10123 35011 ft 325 kts 245°
2026-05-07 05:57 38.17767 -82.15108 35016 ft 325 kts 245°
2026-05-07 05:58 38.15507 -82.20093 35016 ft 326 kts 245°
2026-05-07 05:58 38.13247 -82.25067 35015 ft 325 kts 245°
2026-05-07 05:59 38.10989 -82.30030 35010 ft 325 kts 245°
2026-05-07 05:59 38.08742 -82.34954 35010 ft 325 kts 245°
2026-05-07 06:00 38.06473 -82.39913 35034 ft 325 kts 245°
2026-05-07 06:00 38.04212 -82.44858 35012 ft 323 kts 245°
2026-05-07 06:01 38.01955 -82.49787 35013 ft 323 kts 244°
2026-05-07 06:01 37.99705 -82.54683 35013 ft 323 kts 244°
2026-05-07 06:02 37.97443 -82.59606 35017 ft 323 kts 244°
2026-05-07 06:02 37.95179 -82.64518 35003 ft 323 kts 245°
2026-05-07 06:03 37.92909 -82.69432 35033 ft 323 kts 245°
2026-05-07 06:03 37.90657 -82.74317 35034 ft 323 kts 245°
2026-05-07 06:04 37.88392 -82.79234 35053 ft 324 kts 245°
2026-05-07 06:04 37.86116 -82.84153 35032 ft 324 kts 244°
2026-05-07 06:05 37.83836 -82.89068 35027 ft 324 kts 244°
2026-05-07 06:05 37.81569 -82.93943 35027 ft 324 kts 244°
2026-05-07 06:06 37.79287 -82.98842 35024 ft 323 kts 244°
2026-05-07 06:06 37.77005 -83.03742 35021 ft 323 kts 244°
2026-05-07 06:07 37.74720 -83.08638 34983 ft 323 kts 244°
2026-05-07 06:07 37.72452 -83.13498 35021 ft 323 kts 244°
2026-05-07 06:08 37.70161 -83.18392 35022 ft 324 kts 244°
2026-05-07 06:08 37.67865 -83.23285 35026 ft 324 kts 244°
2026-05-07 06:09 37.65568 -83.28175 35025 ft 324 kts 244°
2026-05-07 06:09 37.63292 -83.33026 35025 ft 323 kts 244°
2026-05-07 06:10 37.60996 -83.37909 35026 ft 324 kts 244°
2026-05-07 06:10 37.58693 -83.42788 35026 ft 324 kts 244°
2026-05-07 06:11 37.56392 -83.47664 35028 ft 324 kts 244°
2026-05-07 06:11 37.54097 -83.52500 35024 ft 323 kts 244°
2026-05-07 06:12 37.51849 -83.57401 35016 ft 322 kts 246°
2026-05-07 06:12 37.49816 -83.62421 35030 ft 322 kts 247°
2026-05-07 06:13 37.47808 -83.67458 35023 ft 322 kts 247°
2026-05-07 06:13 37.45768 -83.72482 35025 ft 322 kts 246°
2026-05-07 06:14 37.43720 -83.77460 35025 ft 322 kts 246°
2026-05-07 06:14 37.41655 -83.82462 35022 ft 322 kts 246°
2026-05-07 06:15 37.39590 -83.87465 35024 ft 322 kts 246°
2026-05-07 06:15 37.37521 -83.92463 35044 ft 323 kts 246°
2026-05-07 06:16 37.35465 -83.97438 35021 ft 323 kts 246°
2026-05-07 06:16 37.33393 -84.02454 35019 ft 323 kts 246°
2026-05-07 06:17 37.31313 -84.07468 35014 ft 324 kts 246°
2026-05-07 06:17 37.29226 -84.12487 35027 ft 324 kts 246°
2026-05-07 06:18 37.27156 -84.17469 35029 ft 324 kts 246°
2026-05-07 06:18 37.25062 -84.22481 35034 ft 324 kts 246°
2026-05-07 06:19 37.22973 -84.27493 35033 ft 324 kts 246°
2026-05-07 06:19 37.20880 -84.32497 35033 ft 324 kts 246°
2026-05-07 06:20 37.18798 -84.37467 35035 ft 324 kts 246°
2026-05-07 06:20 37.16695 -84.42466 35033 ft 324 kts 246°
2026-05-07 06:21 37.14595 -84.47465 35036 ft 324 kts 246°
2026-05-07 06:21 37.12490 -84.52468 35037 ft 324 kts 246°
2026-05-07 06:22 37.10379 -84.57465 35003 ft 325 kts 245°
2026-05-07 06:22 37.07219 -84.64947 35035 ft 326 kts 245°
2026-05-07 06:23 37.05098 -84.69956 35038 ft 326 kts 245°
2026-05-07 06:23 37.02980 -84.74961 35036 ft 325 kts 245°
2026-05-07 06:24 37.00861 -84.79962 35037 ft 325 kts 245°
2026-05-07 06:24 36.98753 -84.84924 35073 ft 325 kts 245°
2026-05-07 06:25 36.96620 -84.89917 35076 ft 325 kts 245°
2026-05-07 06:25 36.94491 -84.94910 34960 ft 325 kts 245°
2026-05-07 06:26 36.93429 -84.97408 34476 ft 327 kts 245°
2026-05-07 06:26 36.92361 -84.99915 33736 ft 327 kts 245°
2026-05-07 06:26 36.91303 -85.02392 32972 ft 327 kts 245°
2026-05-07 06:26 36.90231 -85.04895 32265 ft 326 kts 244°
2026-05-07 06:27 36.89157 -85.07392 31511 ft 326 kts 244°
2026-05-07 06:27 36.88086 -85.09886 30755 ft 325 kts 244°
2026-05-07 06:27 36.87014 -85.12383 29910 ft 327 kts 244°
2026-05-07 06:27 36.85936 -85.14896 29005 ft 329 kts 244°
2026-05-07 06:28 36.84858 -85.17410 28159 ft 329 kts 244°
2026-05-07 06:28 36.83777 -85.19939 27282 ft 332 kts 244°
2026-05-07 06:28 36.82681 -85.22496 26399 ft 336 kts 244°
2026-05-07 06:28 36.81586 -85.25042 25619 ft 337 kts 244°
2026-05-07 06:29 36.80478 -85.27610 25003 ft 335 kts 245°
2026-05-07 06:29 36.79376 -85.30166 24410 ft 334 kts 245°
2026-05-07 06:29 36.78280 -85.32705 23826 ft 332 kts 245°
2026-05-07 06:29 36.77184 -85.35235 23187 ft 331 kts 245°
2026-05-07 06:30 36.76094 -85.37750 22613 ft 329 kts 245°
2026-05-07 06:30 36.75010 -85.40251 22060 ft 327 kts 245°
2026-05-07 06:30 36.73907 -85.42723 21813 ft 339 kts 244°
2026-05-07 06:30 36.72706 -85.45313 21622 ft 349 kts 243°
2026-05-07 06:31 36.71470 -85.47919 21401 ft 350 kts 243°
2026-05-07 06:31 36.70224 -85.50527 21187 ft 350 kts 243°
2026-05-07 06:31 36.68978 -85.53131 20954 ft 349 kts 243°
2026-05-07 06:31 36.67738 -85.55729 20731 ft 348 kts 243°
2026-05-07 06:32 36.66507 -85.58324 20486 ft 348 kts 243°
2026-05-07 06:32 36.65282 -85.60916 20287 ft 347 kts 243°
2026-05-07 06:32 36.64061 -85.63503 20074 ft 346 kts 243°
2026-05-07 06:32 36.62861 -85.66046 19853 ft 345 kts 243°
2026-05-07 06:33 36.61653 -85.68606 19639 ft 338 kts 243°
2026-05-07 06:33 36.60489 -85.71061 19514 ft 322 kts 243°
2026-05-07 06:33 36.59375 -85.73405 19402 ft 308 kts 243°
2026-05-07 06:33 36.58308 -85.75650 19256 ft 295 kts 243°
2026-05-07 06:34 36.57275 -85.77822 19034 ft 288 kts 243°
2026-05-07 06:34 36.56259 -85.79965 18958 ft 288 kts 243°
2026-05-07 06:34 36.55243 -85.82107 18675 ft 287 kts 243°
2026-05-07 06:34 36.54237 -85.84235 18381 ft 285 kts 243°
2026-05-07 06:35 36.53232 -85.86357 18056 ft 284 kts 243°
2026-05-07 06:35 36.52239 -85.88446 17763 ft 284 kts 243°
2026-05-07 06:35 36.51229 -85.90563 17468 ft 285 kts 243°
2026-05-07 06:35 36.50217 -85.92683 17167 ft 285 kts 243°
2026-05-07 06:36 36.49206 -85.94802 16867 ft 285 kts 243°
2026-05-07 06:36 36.48195 -85.96919 16575 ft 285 kts 243°
2026-05-07 06:36 36.47182 -85.99038 16249 ft 285 kts 243°
2026-05-07 06:36 36.46169 -86.01161 15947 ft 286 kts 243°
2026-05-07 06:37 36.45155 -86.03290 15653 ft 287 kts 243°
2026-05-07 06:37 36.44153 -86.05393 15359 ft 287 kts 243°
2026-05-07 06:37 36.43133 -86.07524 15035 ft 287 kts 243°
2026-05-07 06:37 36.42114 -86.09647 14757 ft 286 kts 243°
2026-05-07 06:38 36.41098 -86.11770 14455 ft 286 kts 243°
2026-05-07 06:38 36.40081 -86.13896 14167 ft 287 kts 242°
2026-05-07 06:38 36.39059 -86.16028 13868 ft 288 kts 243°
2026-05-07 06:38 36.38035 -86.18164 13560 ft 288 kts 242°
2026-05-07 06:39 36.37008 -86.20306 13248 ft 290 kts 242°
2026-05-07 06:39 36.35977 -86.22455 12945 ft 290 kts 242°
2026-05-07 06:39 36.34955 -86.24571 12647 ft 290 kts 242°
2026-05-07 06:39 36.33920 -86.26716 12356 ft 290 kts 242°
2026-05-07 06:40 36.32886 -86.28865 12057 ft 290 kts 242°
2026-05-07 06:40 36.31852 -86.31013 11755 ft 290 kts 242°
2026-05-07 06:40 36.30816 -86.33159 11458 ft 288 kts 242°
2026-05-07 06:40 36.29802 -86.35243 11327 ft 276 kts 242°
2026-05-07 06:41 36.28830 -86.37236 11198 ft 265 kts 242°
2026-05-07 06:41 36.27894 -86.39166 10961 ft 259 kts 243°
2026-05-07 06:41 36.26976 -86.41072 10730 ft 257 kts 243°
2026-05-07 06:41 36.26074 -86.42947 10494 ft 257 kts 243°
2026-05-07 06:42 36.25160 -86.44848 10203 ft 257 kts 243°
2026-05-07 06:42 36.24245 -86.46744 9892 ft 254 kts 243°
2026-05-07 06:42 36.23355 -86.48576 9755 ft 243 kts 243°
2026-05-07 06:42 36.22465 -86.50326 9561 ft 239 kts 236°
2026-05-07 06:43 36.21239 -86.51737 9418 ft 245 kts 219°
2026-05-07 06:43 36.19658 -86.52608 9213 ft 253 kts 205°
2026-05-07 06:43 36.17982 -86.53281 8935 ft 253 kts 205°
2026-05-07 06:43 36.16340 -86.53945 8790 ft 243 kts 205°
2026-05-07 06:44 36.14776 -86.54565 8624 ft 235 kts 205°
2026-05-07 06:44 36.13250 -86.55164 8497 ft 227 kts 205°
2026-05-07 06:44 36.11750 -86.55753 8261 ft 227 kts 205°
2026-05-07 06:44 36.10233 -86.56329 7897 ft 229 kts 204°
2026-05-07 06:45 36.08705 -86.56895 7684 ft 230 kts 204°
2026-05-07 06:45 36.07175 -86.57460 7445 ft 229 kts 203°
2026-05-07 06:45 36.05651 -86.58031 7203 ft 229 kts 204°
2026-05-07 06:45 36.04125 -86.58612 6876 ft 230 kts 203°
2026-05-07 06:46 36.02596 -86.59208 6519 ft 231 kts 203°
2026-05-07 06:46 36.01087 -86.59813 6155 ft 232 kts 203°
2026-05-07 06:46 35.99552 -86.60458 5763 ft 234 kts 203°
2026-05-07 06:46 35.98018 -86.61141 5394 ft 235 kts 203°
2026-05-07 06:47 35.96488 -86.61861 5027 ft 236 kts 203°
2026-05-07 06:47 35.94957 -86.62610 4647 ft 237 kts 202°
2026-05-07 06:47 35.93517 -86.63587 4254 ft 237 kts 221°
2026-05-07 06:47 35.92548 -86.65208 3876 ft 237 kts 249°
2026-05-07 06:48 35.92291 -86.67187 3493 ft 235 kts 277°
2026-05-07 06:48 35.92794 -86.69075 3118 ft 233 kts 305°
2026-05-07 06:48 35.93875 -86.70410 2999 ft 212 kts 331°
2026-05-07 06:48 35.95108 -86.71240 3008 ft 193 kts 334°
2026-05-07 06:49 35.96209 -86.71982 3007 ft 170 kts 334°
2026-05-07 06:49 35.97177 -86.72637 3006 ft 147 kts 335°
2026-05-07 06:49 35.98072 -86.73098 3004 ft 134 kts 349°
2026-05-07 06:49 35.98982 -86.73192 2982 ft 131 kts
2026-05-07 06:50 35.99842 -86.72880 2809 ft 129 kts 16°
2026-05-07 06:50 36.00694 -86.72591 2638 ft 126 kts 18°
2026-05-07 06:50 36.01516 -86.72289 2468 ft 125 kts 18°
2026-05-07 06:50 36.02339 -86.71975 2304 ft 123 kts 18°
2026-05-07 06:51 36.03153 -86.71657 2143 ft 122 kts 19°
2026-05-07 06:51 36.03961 -86.71339 1976 ft 121 kts 18°
2026-05-07 06:51 36.04759 -86.71022 1815 ft 120 kts 20°
2026-05-07 06:51 36.05551 -86.70707 1638 ft 120 kts 18°
2026-05-07 06:52 36.06356 -86.70386 1454 ft 123 kts 18°
2026-05-07 06:52 36.07181 -86.70053 1232 ft 126 kts 17°
2026-05-07 06:52 36.08002 -86.69708 1098 ft 127 kts 18°
2026-05-07 06:52 36.08850 -86.69384 938 ft 127 kts 15°
2026-05-07 06:53 36.09697 -86.69062 740 ft 125 kts 18°
2026-05-07 06:53 36.10525 -86.68727 607 ft 125 kts 18°
2026-05-07 06:53 36.11280 -86.68420 581 ft 105 kts 18°
2026-05-07 06:53 36.11900 -86.68168 581 ft 65 kts 19°
2026-05-07 06:54 36.12226 -86.68036 580 ft 46 kts 17°
2026-05-07 06:54 36.12292 -86.68010 581 ft 0 kts 17°
2026-05-07 06:54 36.12293 -86.68010 581 ft 1 kts 17°
2026-05-07 06:54 36.12310 -86.68000 582 ft 3 kts 28°
2026-05-07 06:55 36.12336 -86.67968 582 ft 10 kts 62°
2026-05-07 06:55 36.12325 -86.67879 584 ft 11 kts 107°
2026-05-07 06:55 36.12303 -86.67792 584 ft 11 kts 107°
2026-05-07 06:55 36.12339 -86.67717 583 ft 12 kts 24°
2026-05-07 06:56 36.12434 -86.67678 583 ft 15 kts 18°
2026-05-07 06:56 36.12522 -86.67601 582 ft 17 kts 43°
2026-05-07 06:56 36.12615 -86.67500 580 ft 19 kts 32°
2026-05-07 06:56 36.12728 -86.67417 577 ft 20 kts 38°
2026-05-07 06:57 36.12805 -86.67331 577 ft 10 kts 44°
2026-05-07 06:57 36.12807 -86.67254 578 ft 8 kts 143°
2026-05-07 06:57 36.12773 -86.67269 575 ft 3 kts 206°
2026-05-07 06:57 36.12760 -86.67274 575 ft 1 kts 193°
2026-05-07 06:58 36.12755 -86.67275 575 ft 1 kts 191°
2026-05-07 06:58 36.12753 -86.67276 575 ft 0 kts 191°